This is the latest recevied weather packets stored in our database for station/object OM6ABF-11. If no packets are shown the sender has not sent any weather packets the latest 10 day(s).
| Time | Temp. | Humidity | Pressure | Rain* | Wind** | Luminosity | Snow |
|---|---|---|---|---|---|---|---|
| 1777898749 | 24.44° C | 16% | 1017.3 hPa | - | - | - | - |
| 1777897849 | 23.89° C | 16% | 1017.6 hPa | - | - | - | - |
| 1777896950 | 23.89° C | 17% | 1017.7 hPa | - | - | - | - |
| 1777896050 | 23.33° C | 17% | 1017.9 hPa | - | - | - | - |
| 1777895151 | 22.78° C | 18% | 1018 hPa | - | - | - | - |
| 1777894252 | 22.78° C | 18% | 1018.3 hPa | - | - | - | - |
| 1777893354 | 22.22° C | 18% | 1018.3 hPa | - | - | - | - |
| 1777892456 | 22.22° C | 20% | 1018.5 hPa | - | - | - | - |
| 1777891556 | 22.22° C | 21% | 1018.6 hPa | - | - | - | - |
| 1777890656 | 22.78° C | 21% | 1018.8 hPa | - | - | - | - |
| 1777889757 | 21.67° C | 21% | 1018.9 hPa | - | - | - | - |
| 1777888858 | 21.11° C | 22% | 1018.9 hPa | - | - | - | - |
| 1777887955 | 20° C | 22% | 1019 hPa | - | - | - | - |
| 1777887056 | 20.56° C | 23% | 1019.2 hPa | - | - | - | - |
| 1777886156 | 21.11° C | 23% | 1019.4 hPa | - | - | - | - |
| 1777885257 | 20° C | 24% | 1019.6 hPa | - | - | - | - |
| 1777884359 | 20° C | 25% | 1019.7 hPa | - | - | - | - |
| 1777883459 | 20° C | 25% | 1019.9 hPa | - | - | - | - |
| 1777882560 | 19.44° C | 27% | 1019.9 hPa | - | - | - | - |
| 1777881661 | 18.89° C | 29% | 1019.9 hPa | - | - | - | - |
| 1777880761 | 18.89° C | 29% | 1020 hPa | - | - | - | - |
| 1777879862 | 18.33° C | 30% | 1020.1 hPa | - | - | - | - |
| 1777878962 | 18.33° C | 32% | 1020 hPa | - | - | - | - |
| 1777878063 | 17.78° C | 33% | 1020 hPa | - | - | - | - |
| 1777877164 | 18.33° C | 35% | 1020 hPa | - | - | - | - |
* Rain since midnight (hover to see other rain measurements)
** Current wind speed in m/s (hover to see current wind gust speed)